Regional Weather Roundup
Issued by NWS

Home | Current Version | Previous Version | Graphics & Text | Print | Product List | Glossary On
Versions: 1 2 3 4 5 6 7 8 9 10 11 12 13 14 15 16 17 18 19 20 21 22 23 24 25 26 27 28 29 30 31 32 33 34 35 36 37 38 39 40 41 42 43 44 45 46 47 48 49 50
000
ASUS45 KPSR 251100
RWRAZ

PRELIMINARY ARIZONA REGIONAL HOURLY WEATHER ROUNDUP
NATIONAL WEATHER SERVICE PHOENIX AZ
400 AM MST FRI JUL 25 2014

NOTE: FAIR INDICATES FEW OR NO CLOUDS BELOW 12,000 FEET WITH NO
SIGNIFICANT WEATHER AND/OR OBSTRUCTIONS TO VISIBILITY.

AZZ001>003-036-251200-
NORTHWEST ARIZONA

CITY           SKY/WX    TMP DP  RH WIND       PRES   REMARKS
KINGMAN        PTCLDY    81  52  36 SE13      29.99R
$$

AZZ004>008-015-016-018-251200-
NORTH CENTRAL ARIZONA

CITY           SKY/WX    TMP DP  RH WIND       PRES   REMARKS
GRAND CANYON   CLOUDY    60  55  83 CALM      30.27S
WILLIAMS       PTCLDY    55  48  76 SE7       30.35R
PRESCOTT       PTCLDY    65  53  65 CALM      30.15S
FLAGSTAFF      CLEAR     50  47  89 CALM      30.31F
PAYSON         CLEAR     68  43  40 CALM      30.20R
PAGE           CLOUDY    83  48  29 CALM      30.07R
$$

AZZ009>014-017-251200-
NORTHEAST ARIZONA

CITY           SKY/WX    TMP DP  RH WIND       PRES   REMARKS
WINSLOW        NOT AVBL
SAINT JOHNS    PTCLDY    69  48  47 CALM      30.20S
WINDOW ROCK    MOCLDY    61  47  59 CALM      30.31S
$$

AZZ023-251200-
GREATER PHOENIX AREA

CITY           SKY/WX    TMP DP  RH WIND       PRES   REMARKS
PHOENIX        PTCLDY    93  61  34 NE8       29.84S
BUCKEYE          N/A     88  61  40 N5        29.84F
DEER VALLEY    CLEAR     89  61  38 NW3       29.87S
SCOTTSDALE     CLEAR     90  63  40 CALM      29.90R
MESA-GATEWAY   CLEAR     86  57  37 E6        29.90S
$$

AZZ027-028-251200-
SOUTHWEST MARICOPA COUNTY AND PINAL COUNTY

CITY           SKY/WX    TMP DP  RH WIND       PRES   REMARKS
CASA GRANDE    CLEAR     90  63  40 S5        29.90R
$$

AZZ503-504-507>509-251200-
SOUTHEAST ARIZONA

CITY           SKY/WX    TMP DP  RH WIND       PRES   REMARKS
TUCSON         CLEAR     85  63  47 S8        30.00F
DAVIS-MONTHAN  CLEAR     83  64  52 SE6       30.00F
NOGALES        CLOUDY    73  64  73 CALM      30.10F
SIERRA VISTA   CLEAR     73  61  64 W5        30.15F
DOUGLAS        CLOUDY    72  63  73 S6        30.10F
SAFFORD        CLEAR     79  42  26 N6        29.99R
$$

AZZ020-021-025-026-031-251200-
SOUTHWEST ARIZONA

CITY           SKY/WX    TMP DP  RH WIND       PRES   REMARKS
YUMA           NOT AVBL
$$

CAZ031-033-041-043-047-048-061-251200-
SOUTHERN CALIFORNIA

CITY           SKY/WX    TMP DP  RH WIND       PRES   REMARKS
DOWNTOWN L.A.  CLEAR     70  63  78 CALM      29.86R
L.A. AIRPORT   PTCLDY    70  63  78 E5        29.86S
SAN DIEGO      CLOUDY    69  63  81 S9        29.88S
BURBANK        CLEAR     71  59  65 E7        29.87R
ONTARIO        PTCLDY    72  59  63 W9        29.87S
RIVERSIDE      CLEAR     73  59  61 NW3       29.87S
PALM SPRINGS   PTCLDY    94  48  20 NE5       29.76S
EL CENTRO NAS  MOCLDY    89  73  59 E12       29.69R
IMPERIAL       MOCLDY    90  72  55 E10       29.69R
BLYTHE         MOCLDY    95  57  27 S8        29.72F
$$

NVZ020-UTZ003-251200-
SOUTHERN NEVADA-UTAH

CITY           SKY/WX    TMP DP  RH WIND       PRES   REMARKS
LAS VEGAS      NOT AVBL
SALT LAKE CITY PTCLDY    67  42  40 CALM      30.02R
$$

NMZ009-TXZ055-251200-
NEW MEXICO-WEST TEXAS

CITY           SKY/WX    TMP DP  RH WIND       PRES   REMARKS
ALBUQUERQUE    MOCLDY    73  42  32 SE5       30.20R
EL PASO        PTCLDY    77  53  43 CALM      30.10R
$$


........................KEY........................
SKY/WX - SKY CONDITION/WEATHER
TMP    - TEMPERATURE IN FAHRENHEIT
DP     - DEW POINT IN FAHRENHEIT
RH     - RELATIVE HUMIDITY IN PERCENT
WIND   - DIRECTION AND SPEED IN MILES PER HOUR (MPH)
VRB    - VARIABLE WIND DIRECTION
PRES   - MEAN SEA LEVEL PRESSURE IN INCHES OF MERCURY
         F - FALLING PRESSURE   R - RISING PRESSURE
         S - STEADY PRESSURE
VSB    - VISIBILITY IN MILES
HX     - HEAT INDEX IN FAHRENHEIT
WCI    - WIND CHILL INDEX IN FAHRENHEIT
TC     - TEMPERATURE IN CELSIUS WHICH IS ALSO KNOWN AS
         TEMPERATURE IN CENTIGRADE
AFB    - AIR FORCE BASE
         LUKE AFB IS LUKE AIR FORCE BASE
         DAVIS-MONTHAN IS DAVIS-MONTHAN AIR FORCE BASE
NAS    - NAVAL AIR STATION
         EL CENTRO NAS IS EL CENTRO NAVAL AIR STATION
N/A    - NOT AVAILABLE



USA.gov is the U.S. government's official web portal to all federal, state and local government web resources and services.